Regional Weather Roundup
Issued by NWS Charleston, WV

Home | Current Version | Previous Version | Graphics & Text | Print | Product List | Glossary On
Versions: 1 2 3 4 5 6 7 8 9 10 11 12 13 14 15 16 17 18 19 20 21 22 23 24 25 26 27 28 29 30 31 32 33 34 35 36 37 38 39 40 41 42 43 44 45 46 47 48 49 50
000
ASUS41 KRLX 141910
RWRRLX
West Virginia Regional Weather Roundup
National Weather Service Charleston WV
200 PM EST SUN FEB 14 2016

Note: "fair" indicates few or no clouds below 12,000 feet with no
significant weather and/or obstructions to visibility.

WVZ003-142000-
Northern Panhandle of West Virginia

CITY           SKY/WX    TMP DP  RH WIND       PRES   REMARKS
WHEELING         N/A     17  -3  41 SE3       30.35F
$$

WVZ009-142000-
Northwest West Virginia

CITY           SKY/WX    TMP DP  RH WIND       PRES   REMARKS
PARKERSBURG      N/A     20   2  45 E7        30.41F
$$

WVZ006-142000-
Western West Virginia

CITY           SKY/WX    TMP DP  RH WIND       PRES   REMARKS
HUNTINGTON     CLOUDY    22   1  40 VRB5      30.32F
$$

WVZ015-142000-
West Central West Virginia

CITY           SKY/WX    TMP DP  RH WIND       PRES   REMARKS
CHARLESTON     CLOUDY    22   0  38 CALM      30.35F
$$

WVZ022-031-142000-
North Central West Virginia

CITY           SKY/WX    TMP DP  RH WIND       PRES   REMARKS
CLARKSBURG       N/A     40  -1  18 NE3       30.35F
MORGANTOWN     NOT AVBL
$$

WVZ025-035-042-045-142000-
Southern West Virginia

CITY           SKY/WX    TMP DP  RH WIND       PRES   REMARKS
BECKLEY        CLOUDY    18  -4  37 S8        30.24F WCI   8
LOGAN          PTSUNNY   21   0  39 SE3       30.26F
BLUEFIELD      CLOUDY    18  -1  43 VRB5      30.22F
LEWISBURG        N/A     19   3  50 N6        30.28F
$$

WVZ047-142000-
Northern Mountains of West Virginia

CITY           SKY/WX    TMP DP  RH WIND       PRES   REMARKS
ELKINS           N/A     21   0  39 W5        30.25F
$$

WVZ052-142000-
Eastern Panhandle of West Virginia

CITY           SKY/WX    TMP DP  RH WIND       PRES   REMARKS
MARTINSBURG      N/A     22  -2  35 CALM      30.45F
PETERSBURG       N/A     24  -1  33 CALM      30.38F
$$



USA.gov is the U.S. government's official web portal to all federal, state and local government web resources and services.